Het weer levert geen direct gevaar op.    Er zijn geen waarschuwingen afgegeven.

Onweer radar more information blitzortung!


Regen radar more information rain snow radar


Meteo Sauwerd

Weerstation Alkmaar Centrum

Weerstation Luyksgestel

Website Noardburgum

Weerstation Noordbergum



Select another period ( hide this area )

Eenheden Periode Custom range Directly to
Metrisch Engels Beide
Dagelijkse Wekelijkse Maandelijkse Jaarlijkse
use both date-selectors for a custom range
previous Dag
With this date

WeatherUnderground graphs for this period ( click here )


Dagelijkse Samenvatting Woensdag 19 december 2018
Tijd Temp. ( °C ) Dew pt. ( °C ) Wind ( km/h ) van Windvlaag ( km/h ) Luchtdruk ( hPa ) Humid.( % ) Rainrate ( cm ) Zonneschijn ( W/m2 )
Hoog5,4 2,8 24,1 ZO ( 411/750 ) 30,6 1008,4 85 - 0
Gemiddeld5,2 2,6 15,0 ZO #26/50 22,9 1006,7 83 - NAN #0/50
Laag4,9 2,4 4,7   16,1 1006,0 83 -  
Dagelijkse Tabular details for Woensdag 19 december 2018
Tijd Temp. ( °C ) Dew pt. ( °C ) Wind ( km/h ) van Windvlaag ( km/h ) Luchtdruk ( hPa ) Humid.( % ) Rainrate ( cm ) Zonneschijn ( W/m2 )
00:04 4,9 2,6 22,7 ZO 24,1 1008,4 85 - -
00:09 4,9 2,6 11,1 OZO 25,7 1008,0 85 - -
00:14 5,0 2,7 19,5 OZO 25,7 1008,0 85 - -
00:19 5,1 2,8 16,3 ZO 29,0 1008,0 85 - -
00:24 5,1 2,6 11,1 OZO 22,5 1008,0 84 - -
00:29 5,1 2,6 22,7 ZO 30,6 1007,7 84 - -
00:34 5,1 2,6 17,7 ZO 22,5 1007,7 84 - -
00:39 5,1 2,6 14,3 OZO 22,5 1007,3 84 - -
00:44 5,1 2,6 13,0 OZO 24,1 1007,0 84 - -
00:49 5,1 2,6 14,3 ZZO 29,0 1007,0 84 - -
00:54 5,1 2,6 22,7 OZO 30,6 1007,0 84 - -
00:59 5,1 2,6 16,3 OZO 20,9 1007,3 84 - -
01:04 5,0 2,5 14,3 ZO 24,1 1007,3 84 - -
01:09 5,0 2,5 24,1 ZZO 24,1 1007,3 84 - -
01:14 4,9 2,4 22,7 ZO 25,7 1007,3 84 - -
01:19 5,0 2,5 22,7 ZO 24,1 1007,0 84 - -
01:24 5,1 2,6 17,7 Oosten 19,3 1007,0 84 - -
01:29 5,1 2,5 19,5 ZO 22,5 1006,7 83 - -
01:34 5,1 2,5 20,9 ZO 20,9 1006,7 83 - -
01:39 5,1 2,5 17,7 ZO 17,7 1006,7 83 - -
01:44 5,2 2,5 7,9 OZO 25,7 1006,7 83 - -
01:49 5,1 2,5 7,9 ZO 19,3 1006,7 83 - -
01:54 5,1 2,5 17,7 ZO 20,9 1006,3 83 - -
01:59 5,1 2,5 14,3 ZO 16,1 1006,3 83 - -
02:04 5,1 2,5 14,3 OZO 25,7 1006,3 83 - -
02:09 5,1 2,5 7,9 ZO 19,3 1006,3 83 - -
02:14 5,1 2,5 13,0 ZO 24,1 1006,3 83 - -
02:19 5,1 2,5 11,1 OZO 19,3 1006,3 83 - -
02:24 5,1 2,5 24,1 ZO 25,7 1006,3 83 - -
02:29 5,1 2,5 16,3 ZO 19,3 1006,3 83 - -
02:34 5,1 2,5 16,3 ZO 25,7 1006,3 83 - -
02:39 5,2 2,5 20,9 OZO 24,1 1006,3 83 - -
02:44 5,2 2,5 16,3 ZZO 29,0 1006,3 83 - -
02:49 5,2 2,5 16,3 ZO 19,3 1006,3 83 - -
02:54 5,2 2,5 4,7 ZO 19,3 1006,3 83 - -
02:59 5,2 2,5 7,9 ZO 20,9 1006,3 83 - -
03:04 5,2 2,5 13,0 ZO 17,7 1006,3 83 - -
03:09 5,3 2,6 7,9 ZZO 17,7 1006,3 83 - -
03:14 5,3 2,6 14,3 ZO 25,7 1006,3 83 - -
03:19 5,3 2,6 13,0 ZZO 22,5 1006,3 83 - -
03:24 5,3 2,6 13,0 Zuiden 17,7 1006,3 83 - -
03:29 5,3 2,6 11,1 Zuiden 24,1 1006,3 83 - -
03:34 5,3 2,6 20,9 ZO 22,5 1006,3 83 - -
03:39 5,4 2,7 17,7 ZZO 22,5 1006,3 83 - -
03:44 5,4 2,7 6,4 ZO 17,7 1006,3 83 - -
03:49 5,3 2,6 13,0 Zuiden 27,4 1006,3 83 - -
03:54 5,4 2,7 11,1 Zuiden 20,9 1006,3 83 - -
03:59 5,4 2,7 13,0 ZO 22,5 1006,3 83 - -
04:04 5,4 2,7 13,0 Zuiden 27,4 1006,3 83 - -
04:09 5,4 2,7 4,7 ZZO 20,9 1006,0 83 - -
Dagelijkse Samenvatting Woensdag 19 december 2018
Tijd Temp. ( °C ) Dew pt. ( °C ) Wind ( km/h ) van Windvlaag ( km/h ) Luchtdruk ( hPa ) Humid.( % ) Rainrate ( cm ) Zonneschijn ( W/m2 )
Hoog5,4 2,8 24,1 ZO ( 411/750 ) 30,6 1008,4 85 - 0
Gemiddeld5,2 2,6 15,0 ZO #26/50 22,9 1006,7 83 - NAN #0/50
Laag4,9 2,4 4,7   16,1 1006,0 83 -  
Dagelijkse Tabular details for Woensdag 19 december 2018
Tijd Temp. ( °C ) Dew pt. ( °C ) Wind ( km/h ) van Windvlaag ( km/h ) Luchtdruk ( hPa ) Humid.( % ) Rainrate ( cm ) Zonneschijn ( W/m2 )
00:04 4,9 2,6 22,7 ZO 24,1 1008,4 85 - -
00:09 4,9 2,6 11,1 OZO 25,7 1008,0 85 - -
00:14 5,0 2,7 19,5 OZO 25,7 1008,0 85 - -
00:19 5,1 2,8 16,3 ZO 29,0 1008,0 85 - -
00:24 5,1 2,6 11,1 OZO 22,5 1008,0 84 - -
00:29 5,1 2,6 22,7 ZO 30,6 1007,7 84 - -
00:34 5,1 2,6 17,7 ZO 22,5 1007,7 84 - -
00:39 5,1 2,6 14,3 OZO 22,5 1007,3 84 - -
00:44 5,1 2,6 13,0 OZO 24,1 1007,0 84 - -
00:49 5,1 2,6 14,3 ZZO 29,0 1007,0 84 - -
00:54 5,1 2,6 22,7 OZO 30,6 1007,0 84 - -
00:59 5,1 2,6 16,3 OZO 20,9 1007,3 84 - -
01:04 5,0 2,5 14,3 ZO 24,1 1007,3 84 - -
01:09 5,0 2,5 24,1 ZZO 24,1 1007,3 84 - -
01:14 4,9 2,4 22,7 ZO 25,7 1007,3 84 - -
01:19 5,0 2,5 22,7 ZO 24,1 1007,0 84 - -
01:24 5,1 2,6 17,7 Oosten 19,3 1007,0 84 - -
01:29 5,1 2,5 19,5 ZO 22,5 1006,7 83 - -
01:34 5,1 2,5 20,9 ZO 20,9 1006,7 83 - -
01:39 5,1 2,5 17,7 ZO 17,7 1006,7 83 - -
01:44 5,2 2,5 7,9 OZO 25,7 1006,7 83 - -
01:49 5,1 2,5 7,9 ZO 19,3 1006,7 83 - -
01:54 5,1 2,5 17,7 ZO 20,9 1006,3 83 - -
01:59 5,1 2,5 14,3 ZO 16,1 1006,3 83 - -
02:04 5,1 2,5 14,3 OZO 25,7 1006,3 83 - -
02:09 5,1 2,5 7,9 ZO 19,3 1006,3 83 - -
02:14 5,1 2,5 13,0 ZO 24,1 1006,3 83 - -
02:19 5,1 2,5 11,1 OZO 19,3 1006,3 83 - -
02:24 5,1 2,5 24,1 ZO 25,7 1006,3 83 - -
02:29 5,1 2,5 16,3 ZO 19,3 1006,3 83 - -
02:34 5,1 2,5 16,3 ZO 25,7 1006,3 83 - -
02:39 5,2 2,5 20,9 OZO 24,1 1006,3 83 - -
02:44 5,2 2,5 16,3 ZZO 29,0 1006,3 83 - -
02:49 5,2 2,5 16,3 ZO 19,3 1006,3 83 - -
02:54 5,2 2,5 4,7 ZO 19,3 1006,3 83 - -
02:59 5,2 2,5 7,9 ZO 20,9 1006,3 83 - -
03:04 5,2 2,5 13,0 ZO 17,7 1006,3 83 - -
03:09 5,3 2,6 7,9 ZZO 17,7 1006,3 83 - -
03:14 5,3 2,6 14,3 ZO 25,7 1006,3 83 - -
03:19 5,3 2,6 13,0 ZZO 22,5 1006,3 83 - -
03:24 5,3 2,6 13,0 Zuiden 17,7 1006,3 83 - -
03:29 5,3 2,6 11,1 Zuiden 24,1 1006,3 83 - -
03:34 5,3 2,6 20,9 ZO 22,5 1006,3 83 - -
03:39 5,4 2,7 17,7 ZZO 22,5 1006,3 83 - -
03:44 5,4 2,7 6,4 ZO 17,7 1006,3 83 - -
03:49 5,3 2,6 13,0 Zuiden 27,4 1006,3 83 - -
03:54 5,4 2,7 11,1 Zuiden 20,9 1006,3 83 - -
03:59 5,4 2,7 13,0 ZO 22,5 1006,3 83 - -
04:04 5,4 2,7 13,0 Zuiden 27,4 1006,3 83 - -
04:09 5,4 2,7 4,7 ZZO 20,9 1006,0 83 - -

Download your copy of this data-set  here

Our weather-data as stored at Weather Underground. Script ontwikkeld door Jim McMurry. Aangepast voor de template door Leuven-Template.eu

U vindt ons ook hier:

Het Weer Aktueel

UK Metoffice

European Weather Network

Weather Underground

AWEKAS

Citizen Weather Observer Program (CWOP)

HAMweather, WeatherForYou, PWS Weather

Apparatuur in gebruik:

Weerstation
Davis Vantage pro 2

Weerprogramma
Meteobridge

Weercomputer
TP-Link TL-WR703N

Webleverancier
Versio

Davis Vantage pro 2

Meteobridge

TP-Link TL-WR703N

Versio